Change the Weather History Date:

Friday, March 29, 2013

  Actual Average Record
Temperature  
Mean Temperature 60 °F 64 °F  
Max Temperature 76 °F 76 °F 88 °F (1924)
Min Temperature 43 °F 53 °F 32 °F (1899)
Degree Days  
Heating Degree Days 5 3  
Month to date heating degree days 275 161  
Since 1 July heating degree days 1447 1496  
Cooling Degree Days 0 3  
Month to date cooling degree days 18 53  
Year to date cooling degree days 43 84  
Growing Degree Days 9 (Base 50)    
Moisture  
Dew Point 46 °F    
Average Humidity 67    
Maximum Humidity 100    
Minimum Humidity 33    
Precipitation  
Precipitation 0.00 in 0.15 in 3.25 in (1995)
Month to date precipitation 2.41 4.10  
Year to date precipitation 24.45 14.86  
Snow  
Snow 0.00 in - - ()
Month to date snowfall 0.0  
Since 1 July snowfall 0.0  
Snow Depth 0.00 in    
Sea Level Pressure  
Sea Level Pressure 30.24 in    
Wind  
Wind Speed 6 mph (South)    
Max Wind Speed 16 mph    
Max Gust Speed 36 mph    
Visibility 10 miles    
Events      
T = Trace of Precipitation, MM = Missing Value Source: NWS Daily Summary

Daily Weather History Graph

Daily Weather History Graph

Search for Another Location

Airport or City:

Trip Planner

Search our weather history database for the weather conditions in past years. The results will help you decide how hot, cold, wet, or windy it might be!

Date:

Astronomy

Mar. 29, 2013 Rise Set
Actual Time 6:57 AM CDT 7:21 PM CDT
Civil Twilight 6:32 AM CDT 7:46 PM CDT
Nautical Twilight 6:04 AM CDT 8:14 PM CDT
Astronomical Twilight 5:36 AM CDT 8:43 PM CDT
Moon 10:07 PM CDT (3/29) 8:18 AM CDT (3/29)
Length of Visible Light 13h 13m
Length of Day
12h 24m
Waning Gibbous, 93% of the Moon is Illuminated
Mar 29
Waning Gibbous
Apr 2
Last Quarter
Apr 10
New
Apr 18
First Quarter
Apr 25
Full

Hourly Weather History & Observations

Time (CDT) Temp. Windchill Dew Point Humidity Pressure Visibility Wind Dir Wind Speed Gust Speed Precip Events Conditions
12:53 AM 54.0 °F - 43.0 °F 66% 30.29 in 10.0 mi Calm Calm - N/A   Clear
1:53 AM 50.0 °F - 44.1 °F 80% 30.28 in 10.0 mi Calm Calm - N/A   Clear
2:53 AM 46.9 °F - 43.0 °F 86% 30.27 in 10.0 mi Calm Calm - N/A   Clear
3:53 AM 44.1 °F 42.5 °F 42.1 °F 93% 30.26 in 10.0 mi ENE 3.5 mph - N/A   Clear
4:53 AM 44.1 °F - 42.1 °F 93% 30.27 in 10.0 mi Calm Calm - N/A   Clear
5:53 AM 43.0 °F - 42.1 °F 97% 30.28 in 10.0 mi Calm Calm - N/A   Clear
6:53 AM 43.0 °F - 41.0 °F 93% 30.30 in 10.0 mi Calm Calm - N/A   Clear
7:53 AM 46.0 °F - 44.1 °F 93% 30.31 in 7.0 mi Calm Calm - N/A   Clear
8:53 AM 53.1 °F - 48.9 °F 86% 30.31 in 5.0 mi ESE 3.5 mph - N/A   Clear
9:53 AM 63.0 °F - 48.0 °F 58% 30.30 in 10.0 mi SE 10.4 mph 19.6 mph N/A   Clear
10:53 AM 66.9 °F - 48.9 °F 52% 30.30 in 10.0 mi South 6.9 mph - N/A   Clear
11:53 AM 70.0 °F - 46.9 °F 44% 30.29 in 10.0 mi South 10.4 mph - N/A   Clear
12:53 PM 71.1 °F - 48.9 °F 45% 30.26 in 10.0 mi South 13.8 mph 17.3 mph N/A   Clear
1:53 PM 73.9 °F - 48.9 °F 41% 30.22 in 10.0 mi SSW 12.7 mph - N/A   Clear
2:53 PM 75.0 °F - 48.0 °F 38% 30.19 in 10.0 mi SW 9.2 mph 18.4 mph N/A   Clear
3:53 PM 75.0 °F - 45.0 °F 34% 30.18 in 10.0 mi South 10.4 mph - N/A   Clear
4:53 PM 75.0 °F - 46.0 °F 36% 30.18 in 10.0 mi SSE 9.2 mph - N/A   Clear
5:53 PM 73.0 °F - 46.0 °F 38% 30.18 in 10.0 mi South 8.1 mph - N/A   Partly Cloudy
6:53 PM 70.0 °F - 48.0 °F 46% 30.18 in 10.0 mi South 9.2 mph - N/A   Clear
7:53 PM 66.0 °F - 45.0 °F 47% 30.19 in 10.0 mi South 8.1 mph - N/A   Clear
8:53 PM 63.0 °F - 48.0 °F 58% 30.20 in 10.0 mi SSW 8.1 mph - N/A   Clear
9:53 PM 61.0 °F - 48.0 °F 62% 30.21 in 10.0 mi SW 6.9 mph - N/A   Clear
10:53 PM 61.0 °F - 50.0 °F 67% 30.21 in 10.0 mi South 5.8 mph - N/A   Clear
11:53 PM 60.1 °F - 48.9 °F 67% 30.20 in 10.0 mi Calm Calm - N/A   Clear